Natchitoches, LA

9:24 PM CDT on October 19, 2017 (GMT -0500)
Natchitoches Regional

Weather History for KIER - March, 2013

Change the Weather History Date:

Sunday, March 31, 2013

  Actual Average Record
Temperature  
Mean Temperature 62 °F -  
Max Temperature 69 °F 73 °F 93 °F (1974)
Min Temperature 54 °F 47 °F 28 °F (1987)
Degree Days  
Heating Degree Days 3    
Growing Degree Days 12 (Base 50)    
Moisture  
Dew Point 60 °F    
Average Humidity 92    
Maximum Humidity 100    
Minimum Humidity 77    
Precipitation  
Precipitation 0.61 in - - ()
Sea Level Pressure  
Sea Level Pressure 29.95 in    
Wind  
Wind Speed 6 mph (SW)    
Max Wind Speed 16 mph    
Max Gust Speed 37 mph    
Visibility 8 miles    
Events Fog , Rain , Thunderstorm    
Averages and records for this station are not official NWS values.
T = Trace of Precipitation, MM = Missing Value Source: NWS Daily Summary

Daily Weather History Graph

Daily Weather History Graph

Search for Another Location

Airport or City:

Trip Planner

Search our weather history database for the weather conditions in past years. The results will help you decide how hot, cold, wet, or windy it might be!

Date:

Astronomy

Mar. 31, 2013 Rise Set
Actual Time 7:01 AM CDT 7:31 PM CDT
Civil Twilight 6:37 AM CDT 7:56 PM CDT
Nautical Twilight 6:08 AM CDT 8:24 PM CDT
Astronomical Twilight 5:39 AM CDT 8:54 PM CDT
Moon No Moon Rise 10:05 AM CDT (3/31)
Length of Visible Light 13h 18m
Length of Day
12h 29m
Waning Gibbous, 77% of the Moon is Illuminated
Mar 31
Waning Gibbous
Apr 2
Last Quarter
Apr 10
New
Apr 18
First Quarter
Apr 25
Full

Hourly Weather History & Observations

Time (CDT) Temp. Dew Point Humidity Pressure Visibility Wind Dir Wind Speed Gust Speed Precip Events Conditions
12:15 AM 60.3 °F 58.3 °F 93% 29.99 in 10.0 mi South 5.8 mph - N/A   Clear
12:35 AM 61.5 °F 59.2 °F 92% 29.99 in 10.0 mi South 5.8 mph - N/A   Clear
12:55 AM 61.3 °F 59.2 °F 93% 29.99 in 10.0 mi SSW 3.5 mph - N/A   Clear
1:15 AM 61.2 °F 59.4 °F 94% 29.99 in 10.0 mi SSW 4.6 mph - N/A   Clear
1:35 AM 61.3 °F 59.5 °F 94% 29.99 in 10.0 mi South 6.9 mph - N/A   Scattered Clouds
1:55 AM 61.5 °F 59.9 °F 94% 29.98 in 10.0 mi SSW 5.8 mph - N/A   Mostly Cloudy
2:15 AM 62.1 °F 60.4 °F 94% 29.98 in 10.0 mi SSW 8.1 mph - N/A   Overcast
2:35 AM 62.4 °F 60.8 °F 94% 29.97 in 7.0 mi SSW 8.1 mph - N/A   Overcast
2:55 AM 62.6 °F 61.0 °F 94% 29.97 in 7.0 mi SSW 6.9 mph - N/A   Overcast
3:15 AM 62.8 °F 61.3 °F 95% 29.96 in 7.0 mi SSW 6.9 mph - N/A   Overcast
3:35 AM 63.0 °F 61.7 °F 96% 29.96 in 7.0 mi SSW 5.8 mph - N/A   Overcast
3:55 AM 63.3 °F 61.7 °F 94% 29.95 in 7.0 mi SSW 5.8 mph - N/A   Overcast
4:15 AM 63.5 °F 61.7 °F 94% 29.94 in 7.0 mi SSW 6.9 mph - N/A   Overcast
4:35 AM 63.5 °F 61.9 °F 94% 29.94 in 7.0 mi SSW 8.1 mph - N/A   Overcast
4:55 AM 63.7 °F 62.1 °F 94% 29.95 in 7.0 mi SW 8.1 mph 16.1 mph N/A   Overcast
5:15 AM 63.9 °F 62.1 °F 94% 29.95 in 7.0 mi SW 4.6 mph - N/A   Overcast
5:35 AM 63.9 °F 62.1 °F 94% 29.95 in 10.0 mi SW 5.8 mph - N/A   Overcast
5:55 AM 64.0 °F 61.9 °F 93% 29.96 in 10.0 mi WSW 4.6 mph - N/A   Overcast
6:15 AM 64.2 °F 62.1 °F 93% 29.96 in 10.0 mi SW 4.6 mph - N/A   Overcast
6:35 AM 63.9 °F 61.9 °F 93% 29.96 in 10.0 mi Calm Calm - N/A   Mostly Cloudy
6:55 AM 63.7 °F 61.9 °F 94% 29.96 in 10.0 mi SSW 3.5 mph - N/A   Mostly Cloudy
7:15 AM 63.9 °F 62.1 °F 94% 29.95 in 10.0 mi SSW 3.5 mph - N/A   Overcast
7:35 AM 64.0 °F 62.1 °F 93% 29.95 in 10.0 mi SW 3.5 mph - N/A   Overcast
7:55 AM 64.4 °F 62.4 °F 93% 29.94 in 10.0 mi SSW 5.8 mph - N/A   Overcast
8:15 AM 64.9 °F 62.4 °F 92% 29.93 in 10.0 mi SW 8.1 mph - N/A   Mostly Cloudy
8:35 AM 66.2 °F 62.6 °F 88% 29.93 in 10.0 mi SSW 9.2 mph - N/A   Mostly Cloudy
8:55 AM 66.4 °F 62.6 °F 88% 29.94 in 10.0 mi SW 9.2 mph - N/A   Overcast
9:15 AM 67.1 °F 63.0 °F 87% 29.95 in 10.0 mi SW 8.1 mph - N/A   Overcast
9:55 AM 68.5 °F 63.0 °F 82% 29.95 in 10.0 mi SW 9.2 mph - N/A   Overcast
10:15 AM 68.9 °F 62.4 °F 80% 29.94 in 10.0 mi SW 10.4 mph 17.3 mph N/A   Overcast
10:35 AM 68.9 °F 62.4 °F 80% 29.93 in 10.0 mi SSW 12.7 mph 17.3 mph N/A   Overcast
10:55 AM 69.8 °F 62.2 °F 77% 29.93 in 10.0 mi SSW 12.7 mph 17.3 mph N/A   Overcast
11:15 AM 68.9 °F 61.7 °F 78% 29.92 in 10.0 mi SSW 9.2 mph 18.4 mph N/A   Overcast
11:35 AM 68.4 °F 62.1 °F 80% 29.94 in 10.0 mi SW 8.1 mph - N/A Thunderstorm Overcast
11:55 AM 68.0 °F 62.4 °F 82% 29.96 in 10.0 mi West 6.9 mph - N/A   Overcast
12:35 PM 57.0 °F 55.4 °F 94% 30.04 in 3.0 mi North 16.1 mph 36.8 mph 0.32 in Rain , Thunderstorm Thunderstorms and Rain
12:55 PM 57.4 °F 55.8 °F 94% 30.05 in 5.0 mi North 11.5 mph 26.5 mph 0.36 in Rain , Thunderstorm Rain
1:15 PM 57.7 °F 56.3 °F 95% 30.06 in 7.0 mi North 8.1 mph - 0.04 in Rain , Thunderstorm Rain
1:35 PM 58.1 °F 56.5 °F 94% 30.03 in 7.0 mi NNE 9.2 mph - 0.08 in Rain Light Rain
1:55 PM 58.1 °F 56.5 °F 94% 30.01 in 7.0 mi NE 8.1 mph - 0.10 in Rain Rain
2:15 PM 58.1 °F 56.7 °F 95% 30.00 in 5.0 mi NNE 5.8 mph - 0.05 in Rain , Thunderstorm Thunderstorms and Rain
2:35 PM 57.7 °F 56.7 °F 96% 29.94 in 5.0 mi SSE 10.4 mph - 0.13 in Rain Heavy Rain
2:55 PM 57.6 °F 56.8 °F 97% 29.91 in 10.0 mi South 12.7 mph - 0.15 in Rain , Thunderstorm Light Thunderstorms and Rain
3:15 PM 57.9 °F 57.2 °F 97% 29.89 in 10.0 mi South 8.1 mph - N/A   Unknown
3:35 PM 59.7 °F 57.7 °F 93% 29.88 in 10.0 mi Calm Calm - N/A   Unknown
3:55 PM 62.2 °F 59.0 °F 89% 29.87 in 10.0 mi Calm Calm - N/A   Unknown
4:35 PM 63.7 °F 59.9 °F 87% 29.88 in 10.0 mi NNW 4.6 mph - N/A   Clear
5:15 PM 67.6 °F 61.2 °F 80% 29.90 in 10.0 mi North 4.6 mph - N/A   Clear
5:35 PM 64.6 °F 60.4 °F 86% 29.90 in 10.0 mi Calm Calm - N/A   Scattered Clouds
5:55 PM 66.0 °F 61.2 °F 84% 29.90 in 10.0 mi North 4.6 mph - N/A   Clear
6:15 PM 67.1 °F 60.4 °F 79% 29.91 in 10.0 mi North 3.5 mph - N/A   Clear
6:35 PM 65.5 °F 60.3 °F 83% 29.91 in 10.0 mi NW 3.5 mph - N/A   Clear
6:55 PM 64.0 °F 60.4 °F 88% 29.92 in 10.0 mi North 3.5 mph - N/A   Clear
7:15 PM 63.5 °F 60.6 °F 90% 29.92 in 10.0 mi Calm Calm - N/A   Scattered Clouds
7:35 PM 63.3 °F 61.3 °F 93% 29.92 in 10.0 mi Calm Calm - N/A   Mostly Cloudy
7:55 PM 63.0 °F 61.5 °F 95% 29.93 in 10.0 mi Calm Calm - N/A   Overcast
8:15 PM 62.2 °F 61.7 °F 98% 29.94 in 10.0 mi Calm Calm - N/A   Overcast
8:35 PM 62.2 °F 61.2 °F 96% 29.94 in 10.0 mi Calm Calm - N/A   Mostly Cloudy
8:55 PM 61.3 °F 60.3 °F 96% 29.95 in 10.0 mi Calm Calm - N/A   Scattered Clouds
9:15 PM 60.8 °F 59.7 °F 96% 29.95 in 10.0 mi Calm Calm - N/A   Clear
9:35 PM 59.2 °F 59.0 °F 99% 29.96 in 7.0 mi Calm Calm - N/A   Clear
9:55 PM 58.6 °F 58.5 °F 99% 29.96 in 7.0 mi Calm Calm - N/A   Clear
10:15 PM 57.9 °F 57.7 °F 99% 29.96 in 1.8 mi Calm Calm - N/A   Mist
10:35 PM 56.3 °F 56.3 °F 100% 29.96 in 0.5 mi Calm Calm - N/A Fog Fog
10:55 PM 56.5 °F 56.5 °F 100% 29.96 in 0.2 mi Calm Calm - N/A Fog Fog
11:15 PM 56.1 °F 56.1 °F 100% 29.96 in 0.5 mi Calm Calm - N/A Fog Fog
11:35 PM 55.8 °F 55.8 °F 100% 29.96 in 0.2 mi Calm Calm - N/A Fog Fog
11:55 PM 54.3 °F 54.3 °F 100% 29.97 in 0.5 mi Calm Calm - N/A Fog Fog